This is the latest recevied weather packets stored in our database for station/object G7UKK-10. If no packets are shown the sender has not sent any weather packets the latest 10 day(s).
| Time | Temp. | Humidity | Pressure | Rain* | Wind** | Luminosity | Snow |
|---|---|---|---|---|---|---|---|
| 1777443016 | 5° C | 87% | 1031.5 hPa | 0 mm | - | - | - |
| 1777442116 | 4.44° C | 89% | 1031.2 hPa | 0 mm | - | - | - |
| 1777441216 | 3.89° C | 90% | 1031.2 hPa | 0 mm | - | - | - |
| 1777440316 | 3.89° C | 90% | 1031.2 hPa | 0 mm | - | - | - |
| 1777439416 | 3.33° C | 90% | 1031.1 hPa | 0 mm | - | - | - |
| 1777438516 | 3.33° C | 91% | 1031.4 hPa | 0 mm | - | - | - |
| 1777437616 | 3.33° C | 91% | 1031.1 hPa | 0 mm | - | - | - |
| 1777436716 | 3.33° C | 91% | 1031 hPa | 0 mm | - | - | - |
| 1777435816 | 3.89° C | 91% | 1031.1 hPa | 0 mm | - | - | - |
| 1777434916 | 3.89° C | 91% | 1031.4 hPa | 0 mm | - | - | - |
| 1777434016 | 3.89° C | 91% | 1031.5 hPa | 0 mm | - | - | - |
| 1777433116 | 3.89° C | 91% | 1031.5 hPa | 0 mm | - | - | - |
| 1777432216 | 3.89° C | 91% | 1031.4 hPa | 0 mm | - | - | - |
| 1777431316 | 3.89° C | 91% | 1031.5 hPa | 0 mm | - | - | - |
| 1777430416 | 3.89° C | 92% | 1031.2 hPa | 0 mm | - | - | - |
| 1777429516 | 3.89° C | 92% | 1031.2 hPa | 0 mm | - | - | - |
| 1777428616 | 3.89° C | 92% | 1031.4 hPa | 0 mm | - | - | - |
| 1777427716 | 3.89° C | 92% | 1031.6 hPa | 0 mm | - | - | - |
| 1777426816 | 3.89° C | 93% | 1031.9 hPa | 0 mm | - | - | - |
| 1777425916 | 3.89° C | 93% | 1031.7 hPa | 0 mm | - | - | - |
| 1777425016 | 3.89° C | 93% | 1031.7 hPa | 0 mm | - | - | - |
| 1777424116 | 4.44° C | 92% | 1031.9 hPa | 0 mm | - | - | - |
| 1777423216 | 4.44° C | 92% | 1031.7 hPa | 0 mm | - | - | - |
| 1777422316 | 4.44° C | 92% | 1031.9 hPa | 0 mm | - | - | - |
| 1777421416 | 4.44° C | 92% | 1032.2 hPa | 0 mm | - | - | - |
* Rain latest hour (hover to see other rain measurements)
** Current wind speed in m/s (hover to see current wind gust speed)